Weather History for KDSV - November, 2012

Change the Weather History Date:

Wednesday, November 21, 2012

  Actual Average Record
Temperature  
Mean Temperature 42 °F -  
Max Temperature 55 °F 46 °F 74 °F (1953)
Min Temperature 30 °F 28 °F 10 °F (2014)
Degree Days  
Heating Degree Days 22    
Moisture  
Dew Point 30 °F    
Average Humidity 74    
Maximum Humidity 96    
Minimum Humidity 40    
Precipitation  
Precipitation 0.00 in - - ()
Sea Level Pressure  
Sea Level Pressure 30.26 in    
Wind  
Wind Speed 2 mph (SSE)    
Max Wind Speed 9 mph    
Max Gust Speed -    
Visibility 10 miles    
Events      
Averages and records for this station are not official NWS values.
T = Trace of Precipitation, MM = Missing Value Source: NWS Daily Summary

Daily Weather History Graph

Daily Weather History Graph

Search for Another Location

Airport or City:

Trip Planner

Search our weather history database for the weather conditions in past years. The results will help you decide how hot, cold, wet, or windy it might be!

Date:

Astronomy

Nov. 21, 2012 Rise Set
Actual Time 7:10 AM EST 4:43 PM EST
Civil Twilight 6:39 AM EST 5:14 PM EST
Nautical Twilight 6:04 AM EST 5:48 PM EST
Astronomical Twilight 5:31 AM EST 6:22 PM EST
Moon 1:06 PM EST (11/21) 12:19 AM EST (11/21)
Length of Visible Light 10h 34m
Length of Day
9h 33m
First Quarter, 61% of the Moon is Illuminated
Nov 21
First Quarter
Nov 28
Full
Dec 6
Last Quarter
Dec 13
New
Dec 20
First Quarter

Hourly Weather History & Observations

Time (EST) Temp. Windchill Dew Point Humidity Pressure Visibility Wind Dir Wind Speed Gust Speed Precip Events Conditions
12:54 AM 34.0 °F - 32.0 °F 92% 30.21 in 10.0 mi Calm Calm - N/A   Clear
1:54 AM 32.0 °F - 30.9 °F 96% 30.21 in 8.0 mi Calm Calm - N/A   Clear
2:54 AM 30.0 °F - 28.9 °F 96% 30.23 in 8.0 mi Calm Calm - N/A   Clear
3:54 AM 30.0 °F - 28.0 °F 92% 30.23 in 9.0 mi Calm Calm - N/A   Clear
4:54 AM 30.9 °F 27.5 °F 28.9 °F 92% 30.24 in 10.0 mi SSE 3.5 mph - N/A   Clear
5:54 AM 30.9 °F 26.2 °F 28.9 °F 92% 30.26 in 10.0 mi SE 4.6 mph - N/A   Partly Cloudy
6:54 AM 30.0 °F - 28.0 °F 92% 30.28 in 10.0 mi Calm Calm - N/A   Clear
7:54 AM 30.9 °F 26.2 °F 28.0 °F 89% 30.29 in 9.0 mi SSE 4.6 mph - N/A   Clear
8:54 AM 34.0 °F 29.8 °F 30.0 °F 85% 30.30 in 10.0 mi SSE 4.6 mph - N/A   Clear
9:54 AM 39.0 °F 36.8 °F 32.0 °F 76% 30.30 in 10.0 mi SE 3.5 mph - N/A   Clear
10:54 AM 46.0 °F - 35.1 °F 66% 30.28 in 10.0 mi Calm Calm - N/A   Clear
11:54 AM 48.9 °F - 35.1 °F 59% 30.25 in 10.0 mi NNW 4.6 mph - N/A   Clear
12:54 PM 52.0 °F - 28.0 °F 40% 30.23 in 10.0 mi Calm Calm - N/A   Clear
1:54 PM 55.0 °F - 30.9 °F 40% 30.22 in 10.0 mi NW 4.6 mph - N/A   Clear
2:54 PM 54.0 °F - 30.9 °F 41% 30.23 in 10.0 mi NW 5.8 mph - N/A   Clear
3:54 PM 52.0 °F - 30.9 °F 45% 30.24 in 10.0 mi NW 4.6 mph - N/A   Clear
4:54 PM 45.0 °F 43.5 °F 30.9 °F 58% 30.25 in 10.0 mi South 3.5 mph - N/A   Clear
5:54 PM 41.0 °F - 30.9 °F 67% 30.26 in 10.0 mi Calm Calm - N/A   Clear
6:54 PM 37.9 °F - 30.0 °F 73% 30.27 in 10.0 mi Calm Calm - N/A   Clear
7:54 PM 36.0 °F - 28.9 °F 76% 30.28 in 10.0 mi Calm Calm - N/A   Clear
8:54 PM 35.1 °F 30.1 °F 28.0 °F 76% 30.28 in 10.0 mi SE 5.8 mph - N/A   Clear
9:54 PM 33.1 °F 26.9 °F 28.0 °F 82% 30.28 in 10.0 mi SE 6.9 mph - N/A   Clear
10:54 PM 34.0 °F 28.0 °F 28.0 °F 79% 30.28 in 10.0 mi SE 6.9 mph - N/A   Clear
11:54 PM 32.0 °F 24.2 °F 27.0 °F 82% 30.26 in 10.0 mi SE 9.2 mph - N/A   Clear